Location: Harbor Island
(32.3990°N, 80.4435°W)
Time: 02:59:53
(UTC-05:00)

Daily predictions for brighter satellites

Satellite Brightness Start Highest point End
(mag) Time Altitude Azimuth Time Altitude Azimuth Time Altitude Azimuth
CZ-3 R/B 4.1 04:30:21 45° WSW 04:33:13 47° SW 04:43:19 10° SSE
ATLAS CENTAUR Rocket 4.4 04:50:59 10° SSE 04:50:59 10° SSE 04:51:05 10° SSE
Cosmos 2237 Rocket 3.6 04:56:09 27° S 04:56:09 27° S 04:58:40 10° S
OAO 2 Rocket 4.1 04:59:36 45° ENE 04:59:36 45° ENE 05:03:09 10° E
SL-16 R/B 2.8 04:57:16 42° NNE 04:58:39 52° ENE 05:04:09 10° SE
Thor Agena Rocket 3.7 04:56:49 10° SSE 05:01:54 73° E 05:01:54 73° E
Cosmos 968 Rocket 4.4 05:06:47 38° NNE 05:06:47 38° NNE 05:10:00 10° NNE
ISS -0.5 05:09:16 17° ENE 05:09:16 17° ENE 05:10:31 10° E
USA 229 DEB 3.7 05:13:19 43° NNW 05:16:01 89° ENE 05:23:17 10° SSE
USA 229 3.7 05:13:22 42° NNW 05:16:07 88° ENE 05:23:23 10° SSE
Centaur AC-42 3.7 05:18:21 20° SSW 05:19:35 23° S 05:25:38 10° ESE
Tsikada Rocket 3.9 05:19:15 47° NNW 05:21:00 66° W 05:27:11 10° S
Meteor 1-16 Rocket 4.3 05:16:15 10° S 05:21:40 70° E 05:26:58 10° NNE
Cosmos 1271 Rocket 3.4 05:20:40 10° S 05:24:23 51° E 05:28:04 10° NNE
NOAA 6 3.9 05:26:22 10° N 05:31:33 74° WNW 05:36:42 10° SSW
Cosmos 540 Rocket 4.4 05:34:32 30° SW 05:34:32 30° SW 05:37:35 10° S
Cosmos 2221 3.4 05:31:28 10° SSE 05:35:39 49° E 05:39:49 10° NNE
Cosmos 1340 Rocket 4.1 05:35:28 10° N 05:39:12 40° E 05:42:56 10° SSE
SL-14 R/B 3.4 05:41:34 17° N 05:44:35 76° E 05:48:37 10° S
Cosmos 1777 Rocket 3.8 05:39:55 10° SSW 05:45:07 74° WNW 05:50:20 10° NNE
BREEZE-M DEB (TANK) 3.6 05:49:40 37° WSW 05:49:56 37° WSW 05:52:37 10° SSE
Cosmos 1072 Rocket 4.4 05:45:37 10° S 05:51:48 89° E 05:57:58 10° N
ATLAS 3B CENTAUR R/B 4.2 05:46:50 10° SW 05:52:03 41° SSE 06:05:24 10° E
Tiangong 2 0.9 05:53:43 72° NNW 05:53:43 72° NNW 05:56:48 10° NE
Meteor 2-1 Rocket 4.1 05:51:45 10° S 05:57:20 87° W 06:03:04 10° N
Cosmos 2263 Rocket 3.6 05:53:05 10° S 05:58:20 41° ESE 06:03:37 10° NE
Aureole 1 4.3 06:01:28 48° WNW 06:01:28 48° WNW 06:04:43 10° N
ERBS 3.0 05:59:49 25° NNW 06:01:30 50° NE 06:04:48 10° SE
Cosmos 1603 4.1 05:57:18 10° NNW 06:02:54 66° ENE 06:08:32 10° SSE
Cosmos 2151 2.9 05:59:21 12° NNW 06:03:12 62° W 06:07:22 10° S
IUS-9 SRM-1 3.3 06:02:39 18° WSW 06:05:35 33° SSW 06:07:48 10° ESE
DELTA 2 R/B (1) 3.7 06:04:53 26° W 06:07:54 56° NNW 06:13:22 10° ENE
NOSS 3-1 (C) 4.2 06:02:00 10° NNW 06:09:52 87° ENE 06:18:20 10° SSE
COSMO-SKYMED 1 2.9 06:07:57 10° S 06:12:05 43° W 06:16:07 11° NNW
Cosmos 1538 Rocket 4.3 06:13:26 10° NNW 06:18:34 48° WSW 06:23:40 10° S
CZ-2C R/B 3.0 06:16:01 10° NNE 06:20:30 56° E 06:25:00 10° S
EP 2 4.2 06:17:50 10° SW 06:20:30 58° WNW 06:23:04 10° NNE
CSL-04 Rocket 3.6 06:16:31 10° N 06:21:45 64° WNW 06:26:56 10° SSW
IDEFIX/ARIANE 42P 3.2 06:16:40 10° NNE 06:21:54 61° E 06:27:05 10° S
Cosmos 1805 Rocket 3.5 06:18:39 10° N 06:23:04 90° NE 06:27:26 10° S
Cosmos 2228 Rocket 4.2 06:19:57 10° SSE 06:24:12 47° E 06:28:27 10° NNE
CZ-4 R/B 1.7 06:21:00 10° NNE 06:25:05 71° ESE 06:29:13 10° S
Ariane Rocket 3.2 06:20:38 10° N 06:25:29 45° WNW 06:30:19 10° SW
Cosmos 923 Rocket 4.1 06:20:54 10° NNW 06:26:10 83° ENE 06:31:25 10° SSE
Genesis I 3.1 06:24:37 11° NNW 06:28:23 77° WSW 06:32:16 10° SSE
GPS 2-05 Rocket1 3.2 06:30:13 18° WNW 06:32:23 46° N 06:35:35 10° E
Cosmos 1898 Rocket 4.3 06:27:22 10° S 06:32:27 56° ESE 06:37:37 10° NNE
CZ-3 Stage 3 3.4 06:28:59 14° W 06:32:58 64° S 06:54:01 10° ESE
Cosmos 1680 Rocket 3.8 06:28:54 10° NNW 06:34:13 74° ENE 06:39:31 10° SSE
AQUARIUS 4.2 06:36:15 10° NNE 06:40:46 86° ESE 06:45:15 10° SSW
SL-16 R/B 3.7 06:39:13 11° WNW 06:42:13 16° W 06:45:38 10° SW
OAO 2 Rocket 3.4 06:38:34 12° WNW 06:43:07 69° SSW 06:48:00 10° ESE
Sich 1 3.0 06:39:30 10° N 06:43:50 83° W 06:48:08 10° S
ISS -2.0 06:41:57 12° WNW 06:44:17 24° SW 06:47:00 10° S
Cosmos 2034 Rocket 4.2 06:41:00 10° SSW 06:46:53 47° W 06:52:52 10° N
Cosmos 1328 Rocket 3.6 06:42:56 10° S 06:47:14 88° E 06:51:36 10° N
Cosmos 1633 Rocket 3.0 06:44:39 10° N 06:49:01 83° W 06:53:20 10° S
Coronas F rocket 0.8 06:47:05 10° N 06:49:29 82° W 06:51:51 10° S
PAYLOAD A 4.2 06:45:08 10° N 06:49:47 42° WNW 06:54:17 10° SW
Cosmos 389 Rocket 2.9 06:48:58 10° SSW 06:52:28 43° W 06:56:00 10° N
MSX 4.1 06:47:32 10° NNE 06:53:19 77° ESE 06:59:05 10° S
Nadezhda 4 Rocket 4.0 06:48:57 10° N 06:55:16 78° W 07:01:31 10° S
Cosmos 1515 Rocket 3.7 06:51:36 10° S 06:55:59 80° E 07:00:25 10° N
Cosmos 1703 4.1 06:52:33 10° NNW 06:56:00 30° W 06:59:27 10° SSW
Cosmos 1151 Rocket 3.9 06:55:00 10° S 06:59:10 55° E 07:03:21 10° NNE
Gbstr 26 Del rocket 4.0 06:55:26 10° WSW 07:00:35 50° NW 07:07:01 10° NE
Cosmos 2344 3.7 06:54:56 10° SW 07:02:29 58° NW 07:10:39 10° NNE
BREEZE-M DEB (TANK) 4.5 06:58:14 10° WNW 07:06:07 25° WSW 07:09:22 10° SSW
